Location: Anankanda
(14.7841°N, 3.0348°W)
Time: 01:42:06
(UTC+00:00)

Centaur AC-146 - Pass Details

Date: 17 January 2021
Orbit: 332 x 37603 km, 18.9° (Epoch: 07 March)

Event Time Altitude Azimuth Distance (km) Brightness Sun altitude
Rises 18:45:20 0° 271° (W) 2,139 6.4 -10.4°
Reaches altitude 10° 18:46:59 10° 278° (W) 1,244 4.7 -10.8°
Maximum altitude 18:49:05 49° 357° (N) 516 1.6 -11.2°
Enters shadow 18:51:32 17° 69° (ENE) 1,533 3.4 -11.8°
